Time,TemperatureF,DewpointF,PressureIn,WindDirection,WindDirectionDegrees,WindSpeedMPH,WindSpeedGustMPH,Humidity,HourlyPrecipIn,Conditions,Clouds,dailyrainin,SoftwareType,DateUTC
2013-04-14 00:02:00,43.0,42.0,-100.00,East,80,14.0,16.0,98,0.07,,,-99.99,,2013-04-14 05:02:00,
2013-04-14 00:12:00,42.0,42.0,-100.00,ENE,70,14.0,17.0,99,0.11,,,-99.99,,2013-04-14 05:12:00,
2013-04-14 00:23:00,41.0,-99.9,-100.00,ENE,70,12.0,17.0,-999,0.04,,,-99.99,,2013-04-14 05:23:00,
2013-04-14 00:32:00,41.0,41.0,-100.00,ENE,70,12.0,16.0,99,0.14,,,-99.99,,2013-04-14 05:32:00,
2013-04-14 00:43:00,41.0,-99.9,-100.00,East,80,12.0,16.0,-999,0.16,,,-99.99,,2013-04-14 05:43:00,
2013-04-14 00:52:00,41.0,41.0,-100.00,East,80,14.0,17.0,99,0.13,,,-99.99,,2013-04-14 05:52:00,
2013-04-14 01:02:00,41.0,41.0,-100.00,East,80,14.0,17.0,99,0.06,,,-99.99,,2013-04-14 06:02:00,
2013-04-14 01:12:00,40.0,40.0,-100.00,ENE,75,12.0,16.0,99,0.13,,,-99.99,,2013-04-14 06:12:00,
2013-04-14 01:22:00,40.0,40.0,-100.00,ENE,75,16.0,19.0,99,0.14,,,-99.99,,2013-04-14 06:22:00,
2013-04-14 01:32:00,40.0,-99.9,-100.00,ENE,75,14.0,18.0,-999,0.11,,,-99.99,,2013-04-14 06:32:00,
2013-04-14 01:42:00,40.0,-99.9,-100.00,ENE,75,14.0,18.0,-999,0.11,,,-99.99,,2013-04-14 06:42:00,
2013-04-14 01:52:00,40.0,40.0,-100.00,East,80,16.0,19.0,99,0.00,,,-99.99,,2013-04-14 06:52:00,
2013-04-14 02:02:00,40.0,40.0,-100.00,East,80,16.0,19.0,99,0.00,,,-99.99,,2013-04-14 07:02:00,
2013-04-14 02:12:00,40.0,40.0,-100.00,East,85,17.0,21.0,99,0.00,,,-99.99,,2013-04-14 07:12:00,
2013-04-14 02:22:00,40.0,40.0,-100.00,East,85,17.0,21.0,99,0.00,,,-99.99,,2013-04-14 07:22:00,
2013-04-14 02:32:00,40.0,40.0,-100.00,East,85,17.0,21.0,99,0.00,,,-99.99,,2013-04-14 07:32:00,
2013-04-14 02:42:00,40.0,40.0,-100.00,East,85,17.0,21.0,99,0.00,,,-99.99,,2013-04-14 07:42:00,
2013-04-14 02:53:00,39.0,-99.9,-100.00,East,95,20.0,-999.0,-999,0.00,,,-99.99,,2013-04-14 07:53:00,
2013-04-14 03:02:00,39.0,39.0,-100.00,East,95,22.0,27.0,99,0.00,,,-99.99,,2013-04-14 08:02:00,
2013-04-14 03:12:00,39.0,39.0,-100.00,East,95,22.0,27.0,99,0.00,,,-99.99,,2013-04-14 08:12:00,
2013-04-14 03:22:00,39.0,39.0,-100.00,East,100,22.0,26.0,99,0.00,,,-99.99,,2013-04-14 08:22:00,
2013-04-14 03:32:00,39.0,39.0,-100.00,East,95,22.0,29.0,99,0.17,,,-99.99,,2013-04-14 08:32:00,
2013-04-14 03:42:00,39.0,39.0,-100.00,East,95,22.0,29.0,99,0.17,,,-99.99,,2013-04-14 08:42:00,
2013-04-14 03:52:00,39.0,39.0,-100.00,East,95,19.0,23.0,99,0.00,,,-99.99,,2013-04-14 08:52:00,
2013-04-14 04:03:00,39.0,39.0,-100.00,East,95,17.0,24.0,99,0.00,,,-99.99,,2013-04-14 09:03:00,
2013-04-14 04:12:00,39.0,39.0,-100.00,East,95,18.0,23.0,99,0.00,,,-99.99,,2013-04-14 09:12:00,
2013-04-14 04:22:00,39.0,39.0,-100.00,East,85,17.0,26.0,99,0.00,,,-99.99,,2013-04-14 09:22:00,
2013-04-14 04:32:00,39.0,39.0,-100.00,East,95,19.0,26.0,99,0.00,,,-99.99,,2013-04-14 09:32:00,
2013-04-14 04:42:00,39.0,39.0,-100.00,East,100,20.0,27.0,99,0.16,,,-99.99,,2013-04-14 09:42:00,
2013-04-14 04:53:00,39.0,39.0,-100.00,East,100,23.0,29.0,99,0.23,,,-99.99,,2013-04-14 09:53:00,
2013-04-14 05:03:00,39.0,39.0,-100.00,East,100,23.0,29.0,99,0.23,,,-99.99,,2013-04-14 10:03:00,
2013-04-14 05:12:00,39.0,39.0,-100.00,East,95,24.0,32.0,99,0.18,,,-99.99,,2013-04-14 10:12:00,
2013-04-14 05:23:00,39.0,39.0,-100.00,East,90,21.0,27.0,99,0.20,,,-99.99,,2013-04-14 10:23:00,
2013-04-14 05:32:00,39.0,39.0,-100.00,East,80,19.0,24.0,99,0.21,,,-99.99,,2013-04-14 10:32:00,
2013-04-14 05:42:00,39.0,39.0,-100.00,East,80,19.0,24.0,99,0.21,,,-99.99,,2013-04-14 10:42:00,
2013-04-14 05:53:00,39.0,-99.9,-100.00,East,80,19.0,24.0,-999,0.00,,,-99.99,,2013-04-14 10:53:00,
2013-04-14 06:03:00,38.0,-99.9,-100.00,East,80,18.0,25.0,-999,0.00,,,-99.99,,2013-04-14 11:03:00,
2013-04-14 06:13:00,38.0,-99.9,-100.00,East,80,18.0,25.0,-999,0.00,,,-99.99,,2013-04-14 11:13:00,
2013-04-14 06:22:00,38.0,38.0,-100.00,East,90,21.0,24.0,99,0.00,,,-99.99,,2013-04-14 11:22:00,
2013-04-14 06:32:00,38.0,38.0,-100.00,East,100,21.0,28.0,99,0.00,,,-99.99,,2013-04-14 11:32:00,
2013-04-14 06:42:00,38.0,38.0,-100.00,East,95,21.0,27.0,99,0.00,,,-99.99,,2013-04-14 11:42:00,
2013-04-14 06:53:00,38.0,38.0,-100.00,East,95,24.0,30.0,99,0.00,,,-99.99,,2013-04-14 11:53:00,
2013-04-14 07:02:00,38.0,38.0,-100.00,East,95,26.0,30.0,99,0.00,,,-99.99,,2013-04-14 12:02:00,
2013-04-14 07:12:00,38.0,38.0,-100.00,East,95,26.0,30.0,99,0.00,,,-99.99,,2013-04-14 12:12:00,
2013-04-14 07:21:00,39.0,38.0,-100.00,East,95,28.0,34.0,99,0.00,,,-99.99,,2013-04-14 12:21:00,
2013-04-14 07:32:00,39.0,-99.9,-100.00,East,95,27.0,34.0,-999,0.00,,,-99.99,,2013-04-14 12:32:00,
2013-04-14 07:42:00,39.0,39.0,-100.00,East,95,27.0,35.0,99,0.00,,,-99.99,,2013-04-14 12:42:00,
2013-04-14 07:52:00,39.0,39.0,-100.00,East,100,26.0,34.0,99,0.00,,,-99.99,,2013-04-14 12:52:00,
2013-04-14 08:02:00,39.0,39.0,-100.00,East,100,27.0,33.0,99,0.00,,,-99.99,,2013-04-14 13:02:00,
2013-04-14 08:12:00,39.0,39.0,-100.00,East,100,27.0,33.0,99,0.00,,,-99.99,,2013-04-14 13:12:00,
2013-04-14 08:22:00,39.0,39.0,-100.00,East,95,28.0,34.0,99,0.00,,,-99.99,,2013-04-14 13:22:00,
2013-04-14 08:32:00,40.0,40.0,-100.00,ESE,105,28.0,35.0,99,0.00,,,-99.99,,2013-04-14 13:32:00,
2013-04-14 08:42:00,40.0,40.0,-100.00,East,100,27.0,35.0,99,0.00,,,-99.99,,2013-04-14 13:42:00,
2013-04-14 08:52:00,40.0,40.0,-100.00,ESE,105,27.0,33.0,99,0.00,,,-99.99,,2013-04-14 13:52:00,
2013-04-14 09:02:00,40.0,40.0,-100.00,East,100,26.0,32.0,99,0.00,,,-99.99,,2013-04-14 14:02:00,
2013-04-14 09:12:00,41.0,41.0,-100.00,East,100,23.0,31.0,99,0.00,,,-99.99,,2013-04-14 14:12:00,
2013-04-14 09:22:00,42.0,42.0,-100.00,East,100,23.0,30.0,99,0.00,,,-99.99,,2013-04-14 14:22:00,
2013-04-14 09:32:00,43.0,43.0,-100.00,ESE,105,17.0,26.0,99,0.00,,,-99.99,,2013-04-14 14:32:00,
2013-04-14 09:42:00,44.0,44.0,-100.00,ESE,110,17.0,24.0,99,0.00,,,-99.99,,2013-04-14 14:42:00,
2013-04-14 09:52:00,44.0,44.0,-100.00,ESE,115,15.0,22.0,99,0.00,,,-99.99,,2013-04-14 14:52:00,
2013-04-14 10:02:00,45.0,45.0,-100.00,ESE,115,16.0,22.0,99,0.00,,,-99.99,,2013-04-14 15:02:00,
2013-04-14 10:13:00,46.0,-99.9,-100.00,ESE,115,18.0,24.0,-999,0.00,,,-99.99,,2013-04-14 15:13:00,
2013-04-14 10:22:00,47.0,47.0,-100.00,ESE,115,18.0,25.0,99,0.00,,,-99.99,,2013-04-14 15:22:00,
2013-04-14 10:34:00,48.0,-99.9,-100.00,ESE,110,21.0,29.0,-999,0.00,,,-99.99,,2013-04-14 15:34:00,
2013-04-14 10:43:00,48.0,48.0,-100.00,ESE,115,23.0,29.0,99,0.00,,,-99.99,,2013-04-14 15:43:00,
2013-04-14 10:53:00,49.0,-99.9,-100.00,ESE,120,21.0,29.0,-999,0.00,,,-99.99,,2013-04-14 15:53:00,
2013-04-14 11:04:00,49.0,49.0,-100.00,ESE,120,21.0,27.0,99,0.00,,,-99.99,,2013-04-14 16:04:00,
2013-04-14 11:13:00,51.0,51.0,-100.00,ESE,120,20.0,27.0,99,0.00,,,-99.99,,2013-04-14 16:13:00,
2013-04-14 11:23:00,51.0,-99.9,-100.00,SE,125,16.0,27.0,-999,0.00,,,-99.99,,2013-04-14 16:23:00,
2013-04-14 11:32:00,54.0,51.0,-100.00,ESE,120,16.0,23.0,92,0.00,,,-99.99,,2013-04-14 16:32:00,
2013-04-14 11:43:00,55.0,53.0,-100.00,SE,130,15.0,22.0,92,0.00,,,-99.99,,2013-04-14 16:43:00,
2013-04-14 11:53:00,55.0,52.0,-100.00,ESE,120,16.0,23.0,90,0.00,,,-99.99,,2013-04-14 16:53:00,
2013-04-14 12:02:00,56.0,53.0,-100.00,ESE,120,16.0,21.0,90,0.00,,,-99.99,,2013-04-14 17:02:00,
2013-04-14 12:12:00,56.0,53.0,-100.00,ESE,120,16.0,22.0,87,0.00,,,-99.99,,2013-04-14 17:12:00,
2013-04-14 12:22:00,57.0,54.0,-100.00,ESE,110,15.0,21.0,89,0.00,,,-99.99,,2013-04-14 17:22:00,
2013-04-14 12:32:00,57.0,54.0,-100.00,East,100,17.0,22.0,89,0.00,,,-99.99,,2013-04-14 17:32:00,
2013-04-14 12:42:00,57.0,54.0,-100.00,East,100,17.0,21.0,89,0.00,,,-99.99,,2013-04-14 17:42:00,
2013-04-14 12:52:00,58.0,56.0,-100.00,ESE,105,14.0,19.0,90,0.00,,,-99.99,,2013-04-14 17:52:00,
2013-04-14 13:02:00,60.0,56.0,-100.00,East,100,16.0,20.0,85,0.00,,,-99.99,,2013-04-14 18:02:00,
2013-04-14 13:12:00,62.0,56.0,-100.00,ESE,120,14.0,22.0,78,0.00,,,-99.99,,2013-04-14 18:12:00,
2013-04-14 13:22:00,65.0,56.0,-100.00,SE,130,14.0,21.0,71,0.00,,,-99.99,,2013-04-14 18:22:00,
2013-04-14 13:32:00,65.0,55.0,-100.00,SE,135,17.0,25.0,69,0.00,,,-99.99,,2013-04-14 18:32:00,
2013-04-14 13:43:00,66.0,56.0,-100.00,SE,130,16.0,26.0,70,0.00,,,-99.99,,2013-04-14 18:43:00,
2013-04-14 13:52:00,67.0,56.0,-100.00,SE,145,19.0,24.0,67,0.00,,,-99.99,,2013-04-14 18:52:00,
2013-04-14 14:03:00,67.0,56.0,-100.00,SSE,150,19.0,29.0,67,0.00,,,-99.99,,2013-04-14 19:03:00,
2013-04-14 14:12:00,68.0,56.0,-100.00,SSE,150,19.0,26.0,65,0.00,,,-99.99,,2013-04-14 19:12:00,
2013-04-14 14:22:00,69.0,56.0,-100.00,SSE,165,21.0,28.0,63,0.00,,,-99.99,,2013-04-14 19:22:00,
2013-04-14 14:32:00,70.0,56.0,-100.00,South,170,21.0,29.0,62,0.00,,,-99.99,,2013-04-14 19:32:00,
2013-04-14 14:42:00,70.0,56.0,-100.00,SSE,165,17.0,27.0,61,0.00,,,-99.99,,2013-04-14 19:42:00,
2013-04-14 14:52:00,71.0,57.0,-100.00,SSE,160,19.0,26.0,61,0.00,,,-99.99,,2013-04-14 19:52:00,
2013-04-14 15:02:00,71.0,56.0,-100.00,SE,145,25.0,29.0,61,0.00,,,-99.99,,2013-04-14 20:02:00,
2013-04-14 15:12:00,71.0,55.0,-100.00,SSE,160,26.0,34.0,58,0.00,,,-99.99,,2013-04-14 20:12:00,
2013-04-14 15:22:00,71.0,58.0,-100.00,SSE,155,17.0,29.0,62,0.00,,,-99.99,,2013-04-14 20:22:00,
2013-04-14 15:33:00,71.0,56.0,-100.00,SSE,160,21.0,27.0,59,0.00,,,-99.99,,2013-04-14 20:33:00,
2013-04-14 15:42:00,72.0,56.0,-100.00,SSE,165,20.0,28.0,57,0.00,,,-99.99,,2013-04-14 20:42:00,
2013-04-14 15:52:00,72.0,55.0,-100.00,SSE,165,17.0,27.0,55,0.00,,,-99.99,,2013-04-14 20:52:00,
2013-04-14 16:02:00,72.0,54.0,-100.00,SSE,165,21.0,30.0,53,0.00,,,-99.99,,2013-04-14 21:02:00,
2013-04-14 16:12:00,72.0,54.0,-100.00,South,180,16.0,27.0,53,0.00,,,-99.99,,2013-04-14 21:12:00,
2013-04-14 16:22:00,72.0,54.0,-100.00,SSE,165,19.0,29.0,52,0.00,,,-99.99,,2013-04-14 21:22:00,
2013-04-14 16:33:00,72.0,54.0,-100.00,SSE,165,19.0,29.0,52,0.00,,,-99.99,,2013-04-14 21:33:00,
2013-04-14 16:43:00,72.0,54.0,-100.00,South,175,17.0,24.0,53,0.00,,,-99.99,,2013-04-14 21:43:00,
2013-04-14 16:53:00,71.0,57.0,-100.00,SSW,195,7.0,21.0,62,0.13,,,-99.99,,2013-04-14 21:53:00,
2013-04-14 17:03:00,68.0,57.0,-100.00,SW,230,14.0,18.0,69,0.06,,,-99.99,,2013-04-14 22:03:00,
2013-04-14 17:13:00,68.0,55.0,-100.00,SSW,200,9.0,16.0,64,0.07,,,-99.99,,2013-04-14 22:13:00,
2013-04-14 17:23:00,68.0,56.0,-100.00,South,175,9.0,14.0,63,0.13,,,-99.99,,2013-04-14 22:23:00,
2013-04-14 17:32:00,69.0,55.0,-100.00,South,180,8.0,13.0,60,0.06,,,-99.99,,2013-04-14 22:32:00,
2013-04-14 17:43:00,69.0,55.0,-100.00,South,175,9.0,15.0,60,0.06,,,-99.99,,2013-04-14 22:43:00,
2013-04-14 17:52:00,68.0,55.0,-100.00,SSW,195,11.0,17.0,61,0.00,,,-99.99,,2013-04-14 22:52:00,
2013-04-14 18:02:00,68.0,56.0,-100.00,SSW,195,9.0,16.0,64,0.31,,,-99.99,,2013-04-14 23:02:00,
2013-04-14 18:12:00,67.0,56.0,-100.00,SSW,210,9.0,14.0,66,0.11,,,-99.99,,2013-04-14 23:12:00,
2013-04-14 18:22:00,66.0,57.0,-100.00,SW,230,10.0,15.0,71,0.23,,,-99.99,,2013-04-14 23:22:00,
2013-04-14 18:33:00,66.0,56.0,-100.00,SSW,200,14.0,21.0,69,0.14,,,-99.99,,2013-04-14 23:33:00,
2013-04-14 18:43:00,64.0,56.0,-100.00,SW,215,16.0,93.0,76,0.38,,,-99.99,,2013-04-14 23:43:00,
2013-04-14 18:52:00,64.0,55.0,-100.00,SSW,205,16.0,26.0,73,0.00,,,-99.99,,2013-04-14 23:52:00,
2013-04-14 19:02:00,64.0,56.0,-100.00,South,190,12.0,27.0,73,0.00,,,-99.99,,2013-04-15 00:02:00,
2013-04-14 19:12:00,63.0,57.0,-100.00,South,190,12.0,22.0,78,0.16,,,-99.99,,2013-04-15 00:12:00,
2013-04-14 19:22:00,63.0,57.0,-100.00,SSW,195,11.0,20.0,80,0.10,,,-99.99,,2013-04-15 00:22:00,
2013-04-14 19:33:00,62.0,58.0,-100.00,SSW,200,7.0,19.0,88,0.00,,,-99.99,,2013-04-15 00:33:00,
2013-04-14 19:42:00,62.0,59.0,-100.00,SW,220,12.0,17.0,90,0.18,,,-99.99,,2013-04-15 00:42:00,
2013-04-14 19:53:00,60.0,-99.9,-100.00,WSW,255,11.0,18.0,-999,0.31,,,-99.99,,2013-04-15 00:53:00,
2013-04-14 20:03:00,59.0,-99.9,-100.00,WSW,245,13.0,24.0,-999,0.51,,,-99.99,,2013-04-15 01:03:00,
2013-04-14 20:13:00,58.0,-99.9,-100.00,West,260,13.0,19.0,-999,0.72,,,-99.99,,2013-04-15 01:13:00,
2013-04-14 20:23:00,56.0,56.0,-100.00,West,275,13.0,24.0,99,0.57,,,-99.99,,2013-04-15 01:23:00,
2013-04-14 20:33:00,55.0,-99.9,-100.00,West,270,13.0,19.0,-999,0.28,,,-99.99,,2013-04-15 01:33:00,
2013-04-14 20:43:00,55.0,-99.9,-100.00,West,270,13.0,19.0,-999,0.28,,,-99.99,,2013-04-15 01:43:00,
2013-04-14 20:53:00,54.0,-99.9,-100.00,WSW,250,7.0,12.0,-999,0.10,,,-99.99,,2013-04-15 01:53:00,
2013-04-14 21:02:00,53.0,53.0,-100.00,SSW,210,3.0,11.0,99,0.16,,,-99.99,,2013-04-15 02:02:00,
2013-04-14 21:13:00,53.0,-99.9,-100.00,WSW,240,4.0,6.0,-999,0.45,,,-99.99,,2013-04-15 02:13:00,
2013-04-14 21:23:00,53.0,-99.9,-100.00,WSW,240,4.0,6.0,-999,0.45,,,-99.99,,2013-04-15 02:23:00,
2013-04-14 21:32:00,53.0,53.0,-100.00,SSW,195,2.0,6.0,99,0.18,,,-99.99,,2013-04-15 02:32:00,
2013-04-14 21:42:00,53.0,53.0,-100.00,SSW,195,2.0,6.0,99,0.18,,,-99.99,,2013-04-15 02:42:00,
2013-04-14 21:53:00,53.0,-99.9,-100.00,SW,225,3.0,7.0,-999,0.18,,,-99.99,,2013-04-15 02:53:00,
2013-04-14 22:03:00,53.0,-99.9,-100.00,West,265,2.0,3.0,-999,0.16,,,-99.99,,2013-04-15 03:03:00,
2013-04-14 22:12:00,53.0,-99.9,-100.00,West,265,2.0,3.0,-999,0.16,,,-99.99,,2013-04-15 03:12:00,
2013-04-14 22:22:00,53.0,-99.9,-100.00,SSE,165,6.0,7.0,-999,0.07,,,-99.99,,2013-04-15 03:22:00,
2013-04-14 22:33:00,53.0,53.0,-100.00,South,185,6.0,9.0,99,0.08,,,-99.99,,2013-04-15 03:33:00,
2013-04-14 22:43:00,53.0,53.0,-100.00,SSW,205,5.0,9.0,99,0.00,,,-99.99,,2013-04-15 03:43:00,
2013-04-14 22:55:00,53.0,53.0,-100.00,SSW,210,0.0,6.0,99,0.13,,,-99.99,,2013-04-15 03:55:00,
2013-04-14 23:03:00,53.0,53.0,-100.00,SSW,205,6.0,10.0,99,0.07,,,-99.99,,2013-04-15 04:03:00,
2013-04-14 23:13:00,53.0,53.0,-100.00,SSW,205,6.0,10.0,99,0.07,,,-99.99,,2013-04-15 04:13:00,
2013-04-14 23:22:00,53.0,53.0,-100.00,SSW,195,6.0,10.0,99,0.11,,,-99.99,,2013-04-15 04:22:00,
2013-04-14 23:33:00,52.0,52.0,-100.00,WNW,295,1.0,3.0,99,0.00,,,-99.99,,2013-04-15 04:33:00,
2013-04-14 23:42:00,52.0,52.0,-100.00,WNW,295,1.0,3.0,99,0.00,,,-99.99,,2013-04-15 04:42:00,
2013-04-14 23:53:00,51.0,-99.9,-100.00,NW,325,4.0,5.0,-999,0.00,,,-99.99,,2013-04-15 04:53:00,